[[[{"header":{"parameterUnit":"kt","parameterCategory":2,"dx":1,"dy":1,"la1":30.253999710083008,"la2":30.299108505249023,"lo1":-89.0895004272461,"lo2":-89.04439544677734,"nx":28,"ny":28,"refTime":"2022-09-20T09:00:00:Z","depth":"0","parameterNumber":2,"parameterNumberName":"U-component_of_CURRENTS"},"data":[-0.4743,-0.471,-0.4726,-0.4827,-0.4929,-0.494,-0.5008,-0.5124,-0.5227,-0.527,-0.5146,-0.519,-0.455,-0.4254,-0.3515,-0.3465,-0.3155,-0.3442,-0.3413,-0.3306,-0.3378,-0.3446,-0.326,-0.2759,-0.2758,-0.2602,-0.2598,-0.2596,-0.4805,-0.4811,-0.4871,-0.4981,-0.5085,-0.5196,-0.5434,-0.5482,-0.5706,-0.6,-0.6248,-0.6021,-0.5833,-0.5533,-0.5118,-0.4868,-0.4811,-0.46,-0.4312,-0.4257,-0.484,-0.4703,-0.45,-0.45,-0.4501,-0.4501,-0.4502,-0.4503,-0.4941,-0.4915,-0.4965,-0.5047,-0.5184,-0.5362,-0.5419,-0.5698,-0.5936,-0.6235,-0.6478,-0.6543,-0.6483,-0.6622,-0.6524,-0.594,-0.6325,-0.5569,-0.5552,-0.5693,-0.55,-0.6336,-0.6503,-0.6506,-0.6509,-0.6512,-0.6514,0,-0.5038,-0.5044,-0.5075,-0.5176,-0.5268,-0.5406,-0.5581,-0.5718,-0.5991,-0.6192,-0.6459,-0.6596,-0.6819,-0.6748,-0.683,-0.6746,-0.6154,-0.6451,-0.5852,-0.518,-0.5239,-0.5091,-0.5819,-0.5969,-0.5969,-0.597,-0.597,-0.597,-0.5118,-0.5139,-0.5225,-0.5277,-0.5308,-0.5416,-0.5531,-0.5718,-0.5863,-0.6183,-0.6289,-0.6475,-0.6601,-0.6725,-0.6702,-0.6707,-0.6315,-0.6443,-0.6262,-0.5699,-0.5602,-0.5671,-0.5551,-0.5975,-0.5975,-0.5974,-0.5974,0,-0.5135,-0.5203,-0.526,-0.5367,-0.5417,-0.5457,-0.5651,-0.5761,-0.591,-0.6101,-0.6144,-0.6294,-0.6386,-0.636,-0.6339,-0.6312,-0.6156,-0.6338,-0.6059,-0.6025,-0.5669,-0.5592,-0.577,-0.5645,-0.6569,-0.6575,-0.6579,0,-0.5168,-0.5224,-0.5287,-0.5323,-0.5424,-0.5516,-0.5645,-0.5722,-0.5885,-0.6021,-0.604,-0.6147,-0.6078,-0.6132,-0.6026,-0.6104,-0.6055,-0.6048,-0.6044,-0.5764,-0.5753,-0.5226,-0.5119,-0.5879,-0.5877,-0.5876,-0.5875,0,-0.51,-0.5224,-0.5293,-0.5335,-0.5467,-0.5518,-0.5596,-0.5715,-0.5809,-0.5906,-0.5985,-0.5995,-0.6012,-0.5975,-0.5894,-0.5813,-0.5946,-0.5816,-0.5945,-0.5955,-0.571,-0.5696,-0.5319,-0.5873,-0.5872,-0.5872,-0.5871,0,-0.5088,-0.5132,-0.524,-0.5351,-0.5387,-0.5464,-0.5598,-0.569,-0.5794,-0.5818,-0.5836,-0.5805,-0.5824,-0.5701,-0.5719,-0.5662,-0.5622,-0.5586,-0.5591,-0.5703,-0.561,-0.5502,-0.5673,-0.5088,-0.5605,-0.5602,-0.56,0,-0.5004,-0.51,-0.5122,-0.525,-0.5312,-0.5359,-0.5464,-0.5534,-0.5572,-0.5654,-0.5599,-0.5616,-0.5492,-0.5466,-0.5477,-0.5419,-0.5468,-0.5372,-0.5407,-0.5409,-0.554,-0.5757,-0.5477,-0.5634,-0.5568,-0.5571,-0.5574,0,-0.4921,-0.4978,-0.4989,-0.5027,-0.5123,-0.5181,-0.5286,-0.5376,-0.5434,-0.5447,-0.5523,-0.5454,-0.5401,-0.5367,-0.5281,-0.53,-0.5413,-0.522,-0.5218,-0.5295,-0.553,-0.569,-0.5727,-0.5356,-0.536,-0.5363,-0.5548,0,-0.4846,-0.4886,-0.4926,-0.4985,-0.5047,-0.5125,-0.5172,-0.5226,-0.5224,-0.5241,-0.5265,-0.5204,-0.5179,-0.5145,-0.5077,-0.5135,-0.5119,-0.5047,-0.4979,-0.5092,-0.5157,-0.5178,-0.4892,-0.4889,-0.4887,-0.4885,0,0,-0.4755,-0.4787,-0.4782,-0.4842,-0.4891,-0.49,-0.4981,-0.5019,-0.5066,-0.5082,-0.5032,-0.501,-0.4939,-0.4953,-0.4966,-0.4938,-0.4959,-0.4898,-0.5028,-0.5045,-0.5059,-0.5128,-0.515,-0.4881,-0.488,-0.4879,-0.4878,0,-0.471,-0.4705,-0.4743,-0.479,-0.4842,-0.487,-0.4894,-0.4941,-0.4946,-0.5006,-0.492,-0.4901,-0.4875,-0.4833,-0.4802,-0.4905,-0.4836,-0.4868,-0.4972,-0.5006,-0.5026,-0.5043,-0.5114,-0.5136,-0.4872,-0.4873,-0.4873,0,-0.4639,-0.4646,-0.4659,-0.4713,-0.4741,-0.4814,-0.476,-0.4821,-0.4875,-0.4768,-0.4817,-0.476,-0.4692,-0.4707,-0.4702,-0.4663,-0.475,-0.4682,-0.4694,-0.4711,-0.4742,-0.4765,-0.4785,-0.4527,-0.4526,-0.4525,0,0,-0.4611,-0.4626,-0.4665,-0.4708,-0.4731,-0.4753,-0.4786,-0.478,-0.4789,-0.4785,-0.4748,-0.4698,-0.4669,-0.4649,-0.4621,-0.465,-0.465,-0.4644,-0.466,-0.4674,-0.4698,-0.4733,-0.4755,-0.4522,-0.4522,-0.4522,0,0,-0.46,-0.4612,-0.4595,-0.464,-0.4694,-0.473,-0.4766,-0.4759,-0.4763,-0.4733,-0.4653,-0.4635,-0.4639,-0.4593,-0.4568,-0.457,-0.4498,-0.4503,-0.4603,-0.4622,-0.4638,-0.4672,-0.4435,0,0,0,0,0,-0.4575,-0.4615,-0.46,-0.461,-0.4658,-0.4744,-0.4754,-0.4736,-0.469,-0.4727,-0.4684,-0.4591,-0.4559,-0.4535,-0.4526,-0.4535,-0.4485,-0.4492,-0.4498,-0.4633,-0.4654,-0.4672,0,0,0,0,0,0,-0.4579,-0.4588,-0.46,-0.4634,-0.4646,-0.474,-0.4656,-0.4653,-0.4684,-0.4674,-0.4609,-0.459,-0.4524,-0.4533,-0.4526,-0.4536,-0.4436,-0.4488,-0.4493,-0.4498,-0.464,-0.4657,-0.4672,0,0,0,0,0,-0.4582,-0.459,-0.4658,-0.4634,-0.4645,-0.4646,-0.4651,-0.4649,-0.4665,-0.4598,-0.4581,-0.4649,-0.4528,-0.4515,-0.4528,-0.4541,-0.444,-0.4438,-0.4491,-0.4496,-0.45,-0.4649,0,0,0,0,0,0,-0.4585,-0.459,-0.4661,-0.4667,-0.4593,-0.4641,-0.4641,-0.4644,-0.4583,-0.4573,-0.4631,-0.4623,-0.4532,-0.4521,-0.4512,-0.4547,-0.4443,-0.4441,-0.444,-0.4495,-0.4498,-0.4501,0,0,0,0,0,0,-0.4587,-0.4594,-0.4664,-0.4612,-0.4611,-0.4636,-0.4636,-0.4628,-0.4578,-0.4616,-0.461,-0.4627,-0.4504,-0.4526,-0.4518,-0.4512,-0.4446,-0.4444,-0.4442,-0.4442,-0.4498,-0.45,0,0,0,0,0,0,-0.4591,-0.4597,-0.461,-0.461,-0.4608,-0.466,-0.4624,-0.4643,-0.4629,-0.4615,-0.4617,-0.4612,-0.4508,-0.4502,-0.4524,-0.4521,-0.4515,-0.4446,-0.4444,-0.4443,-0.4443,0,0,0,0,0,0,0,-0.4594,-0.4543,-0.4637,-0.4607,-0.4606,-0.4715,-0.4716,-0.4717,-0.4627,-0.4623,-0.4618,-0.4614,-0.4457,-0.4455,-0.4453,-0.4529,0,0,-0.4446,-0.4445,0,0,0,0,0,0,0,0,-0.4542,-0.4543,-0.4637,-0.4639,-0.464,-0.4715,-0.4716,-0.4716,-0.4627,-0.4623,-0.4619,-0.4616,-0.4457,-0.4455,-0.4453,0,0,0,0,0,0,0,0,0,0,0,0,0,0,0,-0.4638,-0.4639,0,-0.4715,-0.4716,-0.4716,-0.4626,-0.4623,-0.462,-0.4617,-0.4456,-0.4455,-0.4453,0,0,0,0,0,0,0,0,0,0,0,0,0,0,0,0,0,0,0,0,0,0,0,0,0,0,0,0,0,0,0,0,0,0,0,0,0,0,0,0,0,0,0,0,0,0,0,0,0,0,0,0,0,0,0,0,0,0,0,0,0,0,0,0,0,0,0,0,0]}],[{"header":{"parameterUnit":"kt","parameterCategory":2,"dx":1,"dy":1,"la1":30.253999710083008,"la2":30.299108505249023,"lo1":-89.0895004272461,"lo2":-89.04439544677734,"nx":28,"ny":28,"refTime":"2022-09-20T09:00:00:Z","depth":"0","parameterNumber":3,"parameterNumberName":"V-component_of_CURRENTS"},"data":[-0.3737,-0.3949,-0.4091,-0.4497,-0.4669,-0.4877,-0.4929,-0.5012,-0.4725,-0.3965,-0.2914,-0.2072,-0.0287,0.1272,0.2638,0.2734,0.3182,0.3001,0.3067,0.2767,0.2661,0.2559,0.2683,0.3579,0.3581,0.4263,0.4271,0.4277,-0.3706,-0.3853,-0.4055,-0.4317,-0.4523,-0.4534,-0.4632,-0.4694,-0.4798,-0.4371,-0.4308,-0.2925,-0.2071,-0.0961,0.0542,0.1091,0.1254,0.1427,0.1779,0.1873,0.0881,0.095,0.1492,0.1492,0.1491,0.1491,0.149,0.1489,-0.3685,-0.377,-0.3941,-0.4122,-0.4266,-0.4404,-0.4473,-0.4505,-0.4531,-0.4353,-0.4225,-0.3805,-0.2855,-0.2053,-0.1711,-0.0412,-0.0718,0.0092,0.017,0.0112,0.0339,-0.1066,-0.0787,-0.0791,-0.0795,-0.0798,-0.0801,0,-0.367,-0.372,-0.3793,-0.4009,-0.4097,-0.4172,-0.4187,-0.4207,-0.4054,-0.3991,-0.3893,-0.3781,-0.3219,-0.264,-0.2125,-0.1785,-0.0884,-0.1225,-0.062,0.0194,0.0141,0.0349,-0.0976,-0.0643,-0.0646,-0.0649,-0.0651,-0.0652,-0.3627,-0.3695,-0.3799,-0.3883,-0.3882,-0.392,-0.3953,-0.3836,-0.3818,-0.3586,-0.3562,-0.3288,-0.3172,-0.2689,-0.2182,-0.1802,-0.1456,-0.1308,-0.1157,-0.0679,-0.0538,-0.0556,-0.0402,-0.0692,-0.0687,-0.0683,-0.0679,0,-0.3597,-0.3626,-0.371,-0.3723,-0.3734,-0.376,-0.3717,-0.3718,-0.3558,-0.3477,-0.3418,-0.3124,-0.2865,-0.2563,-0.2147,-0.194,-0.1393,-0.1625,-0.1431,-0.137,-0.0773,-0.0683,-0.0245,-0.0028,-0.1468,-0.147,-0.1471,0,-0.3516,-0.3558,-0.3579,-0.3613,-0.3666,-0.3582,-0.3583,-0.3497,-0.3368,-0.3323,-0.308,-0.2995,-0.2587,-0.2391,-0.2166,-0.1914,-0.1811,-0.1689,-0.1647,-0.1373,-0.1369,-0.0755,-0.0634,-0.1448,-0.1449,-0.145,-0.1451,0,-0.3408,-0.3442,-0.3506,-0.35,-0.3473,-0.3457,-0.3424,-0.3298,-0.3268,-0.3088,-0.3028,-0.2774,-0.2652,-0.2373,-0.2171,-0.2137,-0.1824,-0.1724,-0.17,-0.1712,-0.1324,-0.1313,-0.0558,-0.1453,-0.1453,-0.1454,-0.1454,0,-0.3278,-0.3313,-0.3386,-0.3367,-0.3378,-0.3368,-0.3307,-0.3271,-0.312,-0.3055,-0.2904,-0.2789,-0.2594,-0.2543,-0.22,-0.2288,-0.2134,-0.1998,-0.1987,-0.2033,-0.2044,-0.1597,-0.1483,-0.089,-0.1921,-0.1924,-0.1927,0,-0.3164,-0.3243,-0.3192,-0.3244,-0.3297,-0.3206,-0.3178,-0.3116,-0.3046,-0.2966,-0.2822,-0.2742,-0.269,-0.2642,-0.2484,-0.2317,-0.2189,-0.2323,-0.1978,-0.197,-0.2063,-0.2036,-0.1708,-0.1549,-0.1971,-0.1966,-0.1963,0,-0.3078,-0.3086,-0.309,-0.3109,-0.307,-0.3094,-0.3062,-0.303,-0.3,-0.292,-0.2847,-0.2755,-0.2677,-0.2621,-0.255,-0.2402,-0.2269,-0.235,-0.2339,-0.2278,-0.1957,-0.2086,-0.2069,-0.2165,-0.2159,-0.2154,-0.1998,0,-0.2946,-0.2975,-0.3011,-0.3025,-0.3018,-0.305,-0.3013,-0.299,-0.2952,-0.2899,-0.2814,-0.2714,-0.261,-0.2604,-0.2567,-0.2442,-0.2441,-0.2374,-0.2282,-0.2285,-0.2232,-0.2205,-0.2493,-0.2491,-0.249,-0.2489,0,0,-0.2845,-0.2902,-0.2893,-0.2921,-0.2923,-0.2889,-0.2923,-0.2897,-0.2845,-0.2808,-0.2791,-0.2652,-0.2583,-0.2488,-0.2514,-0.2495,-0.2417,-0.2454,-0.2327,-0.231,-0.2293,-0.2239,-0.2215,-0.2486,-0.2485,-0.2485,-0.2484,0,-0.2806,-0.2823,-0.2877,-0.2869,-0.2882,-0.2869,-0.2874,-0.286,-0.2828,-0.2793,-0.272,-0.2648,-0.2576,-0.2494,-0.2449,-0.2481,-0.2363,-0.2497,-0.2497,-0.232,-0.2306,-0.2292,-0.2237,-0.2217,-0.248,-0.2481,-0.2481,0,-0.273,-0.2742,-0.2769,-0.2797,-0.2805,-0.2826,-0.278,-0.2801,-0.2788,-0.268,-0.2637,-0.2582,-0.2494,-0.2455,-0.2426,-0.2388,-0.2287,-0.2358,-0.2365,-0.2328,-0.2139,-0.2126,-0.2113,-0.2256,-0.2256,-0.2256,0,0,-0.2696,-0.2731,-0.2744,-0.2792,-0.2809,-0.2786,-0.279,-0.2764,-0.2725,-0.2699,-0.2618,-0.2544,-0.2491,-0.2437,-0.2388,-0.234,-0.2238,-0.2333,-0.2344,-0.2352,-0.2321,-0.2137,-0.2125,-0.2254,-0.2254,-0.2254,0,0,-0.2677,-0.2705,-0.2694,-0.2759,-0.2757,-0.2748,-0.2771,-0.2734,-0.268,-0.2668,-0.256,-0.2531,-0.2484,-0.242,-0.2409,-0.2355,-0.231,-0.2309,-0.2386,-0.2397,-0.2408,-0.2383,-0.2318,0,0,0,0,0,-0.2652,-0.2708,-0.2699,-0.2711,-0.2745,-0.2762,-0.276,-0.2727,-0.2697,-0.2696,-0.262,-0.2549,-0.2403,-0.239,-0.2367,-0.2368,-0.223,-0.2235,-0.2238,-0.2327,-0.2341,-0.2353,0,0,0,0,0,0,-0.2657,-0.2672,-0.2698,-0.27,-0.2707,-0.276,-0.271,-0.2701,-0.2695,-0.2685,-0.257,-0.2546,-0.2474,-0.2395,-0.2375,-0.2378,-0.2324,-0.2232,-0.2236,-0.2239,-0.2332,-0.2343,-0.2353,0,0,0,0,0,-0.2661,-0.2673,-0.2742,-0.2697,-0.2703,-0.2679,-0.2707,-0.2699,-0.2678,-0.2589,-0.2566,-0.2654,-0.2478,-0.2453,-0.2383,-0.239,-0.2337,-0.233,-0.2234,-0.2237,-0.224,-0.2338,0,0,0,0,0,0,-0.2663,-0.2644,-0.2741,-0.2741,-0.2677,-0.2672,-0.2672,-0.2698,-0.2578,-0.2561,-0.2667,-0.266,-0.2481,-0.2461,-0.2442,-0.2399,-0.2347,-0.234,-0.2336,-0.2236,-0.2239,-0.224,0,0,0,0,0,0,-0.2638,-0.2644,-0.274,-0.2717,-0.2714,-0.2667,-0.2667,-0.2604,-0.2572,-0.2657,-0.2652,-0.2665,-0.2473,-0.2467,-0.2452,-0.2357,-0.2355,-0.2349,-0.2344,-0.2341,-0.2238,-0.224,0,0,0,0,0,0,-0.2639,-0.2644,-0.2716,-0.2714,-0.271,-0.2698,-0.2602,-0.2611,-0.2644,-0.2659,-0.2637,-0.2634,-0.2478,-0.2464,-0.2459,-0.2371,-0.236,-0.2355,-0.2351,-0.2347,-0.2345,0,0,0,0,0,0,0,-0.264,-0.2621,-0.2753,-0.2711,-0.2707,-0.2742,-0.2741,-0.2739,-0.2643,-0.264,-0.2638,-0.2636,-0.2394,-0.2386,-0.2379,-0.2382,0,0,-0.2356,-0.2352,0,0,0,0,0,0,0,0,-0.2617,-0.262,-0.2754,-0.2754,-0.2755,-0.2742,-0.2741,-0.274,-0.2642,-0.264,-0.2638,-0.2636,-0.2392,-0.2386,-0.238,0,0,0,0,0,0,0,0,0,0,0,0,0,0,0,-0.2754,-0.2754,0,-0.2741,-0.2741,-0.274,-0.2642,-0.264,-0.2639,-0.2637,-0.239,-0.2385,-0.238,0,0,0,0,0,0,0,0,0,0,0,0,0,0,0,0,0,0,0,0,0,0,0,0,0,0,0,0,0,0,0,0,0,0,0,0,0,0,0,0,0,0,0,0,0,0,0,0,0,0,0,0,0,0,0,0,0,0,0,0,0,0,0,0,0,0,0,0,0]}]],[[{"header":{"parameterUnit":"kt","parameterCategory":2,"dx":1,"dy":1,"la1":30.253999710083008,"la2":30.299108505249023,"lo1":-89.0895004272461,"lo2":-89.04439544677734,"nx":28,"ny":28,"refTime":"2022-09-20T09:00:00:Z","depth":"2","parameterNumber":2,"parameterNumberName":"U-component_of_CURRENTS"},"data":[-0.2891,-0.2992,-0.3089,-0.3365,-0.3578,-0.3622,-0.3646,-0.3603,-0.354,-0.3279,-0.2939,-0.2854,-0.2773,-0.202,-0.1869,-0.1657,-0.2033,-0.1577,-0.3262,-0.2754,-0.2842,-0.2987,-0.2615,0,0,0,0,0,-0.2912,-0.303,-0.3276,-0.3611,-0.3846,-0.4094,-0.4402,-0.4347,-0.4316,-0.442,-0.4325,-0.3503,-0.306,-0.308,-0.2615,-0.2644,-0.2391,-0.273,-0.223,-0.2326,-0.2413,-0.211,-0.146,-0.1458,-0.1455,-0.1453,0,0,-0.3024,-0.3101,-0.3374,-0.3642,-0.3968,-0.4313,-0.437,-0.4728,-0.49,-0.4936,-0.5172,-0.486,-0.4624,-0.41,-0.3958,-0.3893,-0.4243,-0.3987,-0.4001,-0.4034,-0.3827,-0.3759,-0.3624,-0.3635,-0.3644,-0.3652,-0.3659,0,-0.3136,-0.323,-0.3452,-0.3766,-0.4012,-0.4351,-0.4671,-0.4824,-0.5241,-0.5333,-0.5517,-0.5521,-0.5517,-0.4988,-0.4981,-0.4799,-0.4777,-0.4624,-0.5686,-0.3685,-0.3601,-0.3552,-0.3581,-0.3471,-0.3482,-0.3489,-0.3495,-0.3499,-0.324,-0.3338,-0.3738,-0.39,-0.4052,-0.4327,-0.4557,-0.4915,-0.5128,-0.5479,-0.5572,-0.5767,-0.5763,-0.5814,-0.5514,-0.5412,-0.5654,-0.4839,-0.4501,-0.5386,-0.5347,-0.5321,-0.5296,-0.3609,-0.3595,-0.3583,-0.3574,0,-0.3295,-0.3518,-0.3781,-0.4165,-0.4268,-0.4417,-0.4804,-0.5014,-0.522,-0.5435,-0.5482,-0.5652,-0.572,-0.569,-0.564,-0.5509,-0.5459,-0.5454,-0.4635,-0.4526,-0.5292,-0.5271,-0.5543,-0.5547,-0.555,-0.5552,-0.5554,0,-0.3472,-0.3631,-0.3966,-0.4076,-0.4325,-0.4572,-0.4801,-0.4972,-0.5207,-0.5375,-0.5417,-0.55,-0.5406,-0.5433,-0.5292,-0.5273,-0.5301,-0.5123,-0.5112,-0.4352,-0.4291,-0.4897,-0.4874,-0.5076,-0.5074,-0.5072,-0.507,0,-0.3462,-0.3808,-0.4005,-0.4113,-0.448,-0.4585,-0.4757,-0.4946,-0.5089,-0.5234,-0.5316,-0.5334,-0.5322,-0.5264,-0.5121,-0.5028,-0.5148,-0.4997,-0.5025,-0.5029,-0.4331,-0.4268,-0.5068,-0.5068,-0.5067,-0.5066,-0.5065,0,-0.356,-0.3767,-0.3988,-0.4351,-0.4426,-0.4527,-0.4789,-0.4911,-0.5043,-0.5085,-0.5106,-0.5057,-0.5054,-0.4879,-0.4888,-0.4827,-0.4789,-0.4729,-0.4737,-0.4744,-0.4642,-0.4112,-0.41,-0.4801,-0.4798,-0.4795,-0.4792,0,-0.3543,-0.3791,-0.3927,-0.4143,-0.4302,-0.4425,-0.4553,-0.4668,-0.4717,-0.4814,-0.4732,-0.476,-0.4604,-0.4597,-0.4582,-0.4514,-0.4576,-0.4453,-0.457,-0.4576,-0.4607,-0.4753,-0.391,-0.4082,-0.4754,-0.4758,-0.4761,0,-0.3504,-0.3805,-0.3808,-0.3952,-0.4134,-0.4235,-0.4339,-0.4492,-0.4592,-0.4543,-0.4657,-0.4541,-0.4501,-0.4482,-0.4411,-0.4411,-0.4513,-0.4347,-0.4346,-0.4482,-0.4675,-0.4698,-0.4726,-0.4453,-0.4456,-0.4459,-0.4731,0,-0.362,-0.3745,-0.3794,-0.3973,-0.4059,-0.4159,-0.4265,-0.4309,-0.431,-0.4351,-0.4369,-0.4271,-0.428,-0.4223,-0.4168,-0.424,-0.4264,-0.4179,-0.417,-0.4236,-0.4344,-0.4368,-0.4054,-0.4053,-0.4051,-0.405,0,0,-0.3541,-0.3707,-0.3787,-0.3896,-0.3989,-0.403,-0.4141,-0.417,-0.4226,-0.4265,-0.4182,-0.416,-0.4075,-0.4129,-0.4123,-0.407,-0.4125,-0.4103,-0.4181,-0.4196,-0.421,-0.4317,-0.4342,-0.4047,-0.4046,-0.4046,-0.4045,0,-0.3605,-0.3694,-0.3768,-0.3855,-0.3968,-0.4036,-0.4055,-0.4149,-0.4162,-0.4178,-0.4139,-0.4094,-0.4046,-0.4041,-0.4026,-0.4049,-0.4061,-0.4025,-0.4133,-0.4166,-0.4182,-0.4197,-0.4307,-0.433,-0.4041,-0.4042,-0.4042,0,-0.361,-0.3727,-0.3765,-0.3928,-0.3976,-0.4071,-0.4065,-0.4122,-0.4184,-0.4103,-0.4119,-0.4058,-0.4012,-0.4002,-0.3983,-0.3973,-0.4032,-0.3957,-0.3964,-0.4007,-0.404,-0.4058,-0.4075,-0.3872,-0.3872,-0.3872,0,0,-0.365,-0.3737,-0.3883,-0.395,-0.3995,-0.4058,-0.4084,-0.4113,-0.4133,-0.412,-0.4089,-0.4044,-0.4014,-0.3994,-0.3954,-0.3943,-0.3974,-0.3941,-0.3949,-0.3956,-0.4002,-0.4037,-0.4054,-0.3872,-0.3872,-0.3872,0,0,-0.3657,-0.3839,-0.3863,-0.3971,-0.4043,-0.4139,-0.4141,-0.4159,-0.4134,-0.4107,-0.4067,-0.4051,-0.4013,-0.3978,-0.398,-0.3954,-0.3916,-0.3914,-0.3996,-0.4005,-0.4012,-0.408,-0.3938,0,0,0,0,0,-0.3773,-0.3832,-0.3853,-0.3886,-0.4041,-0.4141,-0.415,-0.4166,-0.4141,-0.4145,-0.4102,-0.4063,-0.3977,-0.3978,-0.3964,-0.3978,-0.3866,-0.3867,-0.3868,-0.3968,-0.3978,-0.3986,0,0,0,0,0,0,-0.3787,-0.3831,-0.3851,-0.3963,-0.3998,-0.4139,-0.4123,-0.4127,-0.414,-0.4135,-0.4076,-0.4062,-0.4033,-0.3981,-0.3969,-0.3984,-0.3942,-0.3867,-0.3867,-0.3868,-0.3971,-0.3979,-0.3986,0,0,0,0,0,-0.3798,-0.3834,-0.4092,-0.3958,-0.3988,-0.4035,-0.412,-0.4123,-0.4113,-0.4093,-0.408,-0.4123,-0.4036,-0.4021,-0.3974,-0.399,-0.3949,-0.3945,-0.3867,-0.3868,-0.3868,-0.3975,0,0,0,0,0,0,-0.3807,-0.3802,-0.4096,-0.4103,-0.3941,-0.4023,-0.4042,-0.412,-0.4065,-0.406,-0.4138,-0.4134,-0.4038,-0.4026,-0.4015,-0.3996,-0.3955,-0.3951,-0.3949,-0.3868,-0.3868,-0.3869,0,0,0,0,0,0,-0.3784,-0.3809,-0.4099,-0.4076,-0.408,-0.4013,-0.403,-0.3996,-0.4059,-0.4107,-0.4107,-0.4136,-0.4019,-0.403,-0.4021,-0.3967,-0.396,-0.3956,-0.3953,-0.3951,-0.3868,-0.3868,0,0,0,0,0,0,-0.3793,-0.3814,-0.4074,-0.4077,-0.408,-0.4149,-0.3972,-0.41,-0.4138,-0.4104,-0.4133,-0.4131,-0.4021,-0.4014,-0.4025,-0.3976,-0.397,-0.396,-0.3957,-0.3955,-0.3954,0,0,0,0,0,0,0,-0.3801,-0.3675,-0.407,-0.4077,-0.4079,-0.417,-0.4171,-0.4171,-0.4138,-0.4136,-0.4134,-0.4132,-0.3982,-0.3978,-0.3974,-0.3983,0,0,-0.396,-0.3958,0,0,0,0,0,0,0,0,-0.3664,-0.3672,-0.407,-0.4072,-0.4075,-0.4171,-0.4171,-0.4171,-0.4137,-0.4136,-0.4134,-0.4133,-0.3981,-0.3978,-0.3974,0,0,0,0,0,0,0,0,0,0,0,0,0,0,0,-0.407,-0.4072,0,-0.4171,-0.4171,-0.4171,-0.4137,-0.4136,-0.4135,-0.4133,-0.398,-0.3977,-0.3974,0,0,0,0,0,0,0,0,0,0,0,0,0,0,0,0,0,0,0,0,0,0,0,0,0,0,0,0,0,0,0,0,0,0,0,0,0,0,0,0,0,0,0,0,0,0,0,0,0,0,0,0,0,0,0,0,0,0,0,0,0,0,0,0,0,0,0,0,0]}],[{"header":{"parameterUnit":"kt","parameterCategory":2,"dx":1,"dy":1,"la1":30.253999710083008,"la2":30.299108505249023,"lo1":-89.0895004272461,"lo2":-89.04439544677734,"nx":28,"ny":28,"refTime":"2022-09-20T09:00:00:Z","depth":"2","parameterNumber":3,"parameterNumberName":"V-component_of_CURRENTS"},"data":[-0.0608,-0.0869,-0.0957,-0.1206,-0.1357,-0.1459,-0.1421,-0.1392,-0.1114,-0.0773,-0.037,0.028,0.0867,0.1058,0.1359,0.1481,0.1627,0.144,0.2033,0.1803,0.1831,0.2201,0.215,0,0,0,0,0,-0.051,-0.0693,-0.0899,-0.1124,-0.1224,-0.1274,-0.1158,-0.1111,-0.0951,-0.0511,-0.0217,0.0282,0.0825,0.1249,0.1697,0.2131,0.2063,0.2111,0.1931,0.1967,0.2,0.1944,0.1641,0.1641,0.164,0.1639,0,0,-0.035,-0.0492,-0.0732,-0.0958,-0.1073,-0.1077,-0.1064,-0.0899,-0.0693,-0.0297,-0.0025,0.0379,0.0861,0.1645,0.1897,0.2194,0.2434,0.2572,0.2578,0.259,0.2568,0.2372,0.2429,0.2433,0.2437,0.244,0.2443,0,-0.022,-0.035,-0.0465,-0.0743,-0.0851,-0.0848,-0.08,-0.0705,-0.0332,-0.0121,0.02,0.0459,0.1032,0.1466,0.2011,0.2248,0.2589,0.257,0.2894,0.2535,0.2316,0.2388,0.2396,0.2387,0.2391,0.2393,0.2396,0.2397,-0.0101,-0.0216,-0.0382,-0.0491,-0.0533,-0.0583,-0.0554,-0.0286,-0.0123,0.0323,0.0446,0.0786,0.1084,0.1703,0.2188,0.2589,0.2689,0.2627,0.2827,0.2983,0.3062,0.3048,0.3036,0.2439,0.2434,0.243,0.2426,0,-0.0056,-0.009,-0.0183,-0.0185,-0.0202,-0.0263,-0.0091,0.0013,0.0268,0.0504,0.0561,0.1069,0.1358,0.1766,0.2221,0.2543,0.2877,0.2935,0.243,0.2474,0.3037,0.3026,0.3165,0.3166,0.3167,0.3168,0.3168,0,0.0076,0.0044,-0.0017,-0.004,-0.0097,0.0124,0.0184,0.0362,0.0667,0.0838,0.1182,0.1364,0.184,0.2091,0.2326,0.2633,0.2673,0.2975,0.307,0.2782,0.2754,0.3043,0.3032,0.3137,0.3138,0.3138,0.3138,0,0.0176,0.022,0.0137,0.0193,0.0382,0.0399,0.0516,0.0845,0.1001,0.1273,0.1394,0.1721,0.1839,0.213,0.2368,0.2439,0.2733,0.2942,0.3039,0.3033,0.2812,0.2783,0.3139,0.3139,0.3139,0.3139,0.3139,0,0.0364,0.0332,0.0292,0.0438,0.0475,0.0556,0.0802,0.0978,0.1331,0.1453,0.1656,0.1863,0.2087,0.2148,0.2494,0.2434,0.2548,0.2741,0.275,0.2767,0.2874,0.2546,0.2559,0.2806,0.2805,0.2803,0.2801,0,0.0435,0.04,0.0529,0.0593,0.0612,0.086,0.1024,0.1252,0.1447,0.1651,0.1892,0.2048,0.21,0.2134,0.2322,0.2567,0.2649,0.2589,0.2833,0.2834,0.2822,0.2908,0.2594,0.2543,0.278,0.2783,0.2784,0,0.0524,0.0601,0.0601,0.0621,0.086,0.0962,0.1131,0.1357,0.1447,0.1662,0.1809,0.2051,0.2099,0.2201,0.235,0.2521,0.2608,0.2534,0.2546,0.2479,0.2862,0.2871,0.2884,0.2796,0.28,0.2804,0.2768,0,0.0684,0.0688,0.0684,0.0795,0.0931,0.0995,0.124,0.1352,0.1447,0.1627,0.1814,0.2033,0.2195,0.2293,0.2354,0.252,0.246,0.2606,0.2604,0.2663,0.2629,0.2642,0.2495,0.2495,0.2496,0.2496,0,0,0.0754,0.0745,0.0856,0.0903,0.0997,0.1188,0.1241,0.141,0.1651,0.1725,0.172,0.2054,0.217,0.2401,0.2406,0.25,0.2516,0.2396,0.2624,0.2637,0.265,0.2623,0.2635,0.2496,0.2497,0.2497,0.2497,0,0.0822,0.0851,0.0816,0.0952,0.1098,0.1259,0.1259,0.1483,0.1569,0.1726,0.1849,0.1975,0.2152,0.2318,0.241,0.2495,0.2497,0.2493,0.2417,0.2622,0.2635,0.2647,0.2622,0.2632,0.2498,0.2497,0.2497,0,0.0914,0.0981,0.0976,0.1129,0.1245,0.1364,0.1459,0.155,0.166,0.1785,0.1912,0.2022,0.218,0.2315,0.2356,0.2353,0.2488,0.2451,0.2451,0.2372,0.2581,0.2596,0.2609,0.2441,0.244,0.244,0,0,0.0966,0.0951,0.1155,0.1163,0.1216,0.1421,0.1507,0.1595,0.1746,0.1794,0.1911,0.2017,0.215,0.2197,0.2313,0.2419,0.2451,0.244,0.2443,0.2445,0.2369,0.2575,0.2589,0.2438,0.2438,0.2437,0,0,0.1018,0.1147,0.1184,0.1196,0.1367,0.1626,0.1653,0.1747,0.1873,0.1825,0.1969,0.1997,0.2086,0.2148,0.2112,0.2289,0.2282,0.2293,0.2245,0.2249,0.2252,0.2133,0.2143,0,0,0,0,0,0.1159,0.1129,0.116,0.1185,0.1403,0.1608,0.1654,0.1784,0.1766,0.1805,0.191,0.1914,0.2174,0.2145,0.2173,0.2188,0.241,0.2415,0.2419,0.2384,0.2388,0.2391,0,0,0,0,0,0,0.1171,0.1195,0.1165,0.1398,0.1452,0.1608,0.1656,0.1697,0.1765,0.1769,0.1907,0.1922,0.202,0.2133,0.2158,0.217,0.2134,0.2412,0.2416,0.242,0.2385,0.2388,0.2391,0,0,0,0,0,0.1181,0.1201,0.147,0.1406,0.1452,0.1644,0.1652,0.1686,0.1732,0.1898,0.1917,0.1808,0.2022,0.2044,0.2148,0.2157,0.2117,0.2127,0.2414,0.2418,0.2421,0.2387,0,0,0,0,0,0,0.1189,0.1282,0.1488,0.1514,0.1354,0.1639,0.167,0.1675,0.1856,0.188,0.1807,0.1808,0.2025,0.2041,0.2058,0.2149,0.2103,0.2113,0.2119,0.2417,0.242,0.2422,0,0,0,0,0,0,0.1273,0.1301,0.1502,0.1427,0.1447,0.1634,0.1661,0.1767,0.185,0.1754,0.1763,0.1804,0.1933,0.204,0.2053,0.2224,0.2093,0.2102,0.2108,0.2112,0.2419,0.2421,0,0,0,0,0,0,0.1291,0.1316,0.1421,0.1436,0.1453,0.1766,0.1729,0.1903,0.1903,0.174,0.1892,0.1887,0.1926,0.1945,0.2049,0.2215,0.2221,0.2093,0.2099,0.2104,0.2106,0,0,0,0,0,0,0,0.1306,0.106,0.1322,0.1444,0.1459,0.1758,0.1766,0.1774,0.1902,0.1898,0.1893,0.1889,0.2042,0.2051,0.2061,0.2208,0,0,0.2092,0.2097,0,0,0,0,0,0,0,0,0.1058,0.106,0.1323,0.1328,0.1333,0.1759,0.1766,0.1772,0.1901,0.1898,0.1894,0.1891,0.2044,0.2052,0.206,0,0,0,0,0,0,0,0,0,0,0,0,0,0,0,0.1324,0.1328,0,0.176,0.1765,0.1771,0.1901,0.1898,0.1895,0.1892,0.2047,0.2053,0.206,0,0,0,0,0,0,0,0,0,0,0,0,0,0,0,0,0,0,0,0,0,0,0,0,0,0,0,0,0,0,0,0,0,0,0,0,0,0,0,0,0,0,0,0,0,0,0,0,0,0,0,0,0,0,0,0,0,0,0,0,0,0,0,0,0,0,0,0,0]}]],[[{"header":{"parameterUnit":"kt","parameterCategory":2,"dx":1,"dy":1,"la1":30.253999710083008,"la2":30.299108505249023,"lo1":-89.0895004272461,"lo2":-89.04439544677734,"nx":28,"ny":28,"refTime":"2022-09-20T09:00:00:Z","depth":"4","parameterNumber":2,"parameterNumberName":"U-component_of_CURRENTS"},"data":[-0.1204,-0.1143,-0.1105,-0.0942,-0.0869,-0.0862,-0.0944,-0.1094,-0.1135,-0.1327,-0.1382,-0.1521,-0.1636,-0.1716,-0.1775,-0.1806,-0.1917,-0.207,-0.2066,-0.234,-0.2364,-0.2386,-0.2487,0,0,0,0,0,-0.1261,-0.1211,-0.1125,-0.1056,-0.0985,-0.1016,-0.111,-0.1287,-0.1516,-0.1415,-0.1594,-0.1632,-0.1741,-0.1855,-0.1816,-0.2011,-0.2176,-0.1962,-0.2186,-0.2355,-0.2382,-0.2471,0,0,0,0,0,0,-0.1343,-0.1303,-0.1283,-0.1217,-0.1169,-0.117,-0.1315,-0.1398,-0.1515,-0.176,-0.1714,-0.1944,-0.2062,-0.2103,-0.2142,-0.2164,-0.2162,-0.2154,-0.219,-0.2218,-0.2251,-0.224,-0.1764,0,0,0,0,0,-0.1407,-0.1427,-0.1437,-0.1366,-0.1373,-0.1455,-0.1585,-0.1601,-0.1911,-0.2074,-0.2094,-0.2192,-0.2181,-0.2285,-0.2301,-0.2343,-0.2666,-0.2544,-0.2559,-0.2689,-0.2711,-0.2635,-0.2661,-0.2484,-0.2488,-0.249,-0.2491,0,-0.1468,-0.1488,-0.1546,-0.1514,-0.1592,-0.1756,-0.1822,-0.2101,-0.214,-0.2398,-0.2356,-0.2477,-0.2615,-0.2477,-0.2654,-0.2665,-0.268,-0.2613,-0.2753,-0.2757,-0.2669,-0.269,-0.2707,-0.2513,-0.2511,-0.2509,-0.2508,0,-0.1494,-0.1586,-0.1623,-0.1775,-0.1813,-0.1877,-0.2104,-0.2154,-0.2441,-0.2518,-0.2638,-0.2825,-0.288,-0.2986,-0.3013,-0.2978,-0.2946,-0.2867,-0.3162,-0.3069,-0.2741,-0.275,-0.2548,-0.254,-0.2534,-0.2528,-0.2523,0,-0.1583,-0.1631,-0.1759,-0.179,-0.1858,-0.2033,-0.2176,-0.2314,-0.2513,-0.258,-0.2906,-0.2957,-0.319,-0.3193,-0.3297,-0.3181,-0.3226,-0.314,-0.3029,-0.3318,-0.3324,-0.321,-0.3204,-0.3279,-0.3281,-0.3282,-0.3284,0,-0.1619,-0.1743,-0.1793,-0.1834,-0.1995,-0.2096,-0.2212,-0.2398,-0.2484,-0.2781,-0.2852,-0.3081,-0.3232,-0.3257,-0.3417,-0.3437,-0.3362,-0.3336,-0.3111,-0.3094,-0.3218,-0.3209,-0.3286,-0.3287,-0.3287,-0.3288,-0.3288,0,-0.1726,-0.1782,-0.1847,-0.1981,-0.2001,-0.2076,-0.2225,-0.2358,-0.2584,-0.271,-0.291,-0.3033,-0.3363,-0.3411,-0.3515,-0.3528,-0.3518,-0.3526,-0.3511,-0.3265,-0.3114,-0.3135,-0.327,-0.3271,-0.3272,-0.3274,-0.3275,0,-0.1748,-0.1814,-0.1894,-0.1967,-0.1986,-0.2112,-0.2242,-0.2379,-0.248,-0.263,-0.2888,-0.3088,-0.3262,-0.3436,-0.3522,-0.3624,-0.3631,-0.3714,-0.3313,-0.3303,-0.3117,-0.3195,-0.3539,-0.3293,-0.3291,-0.3289,-0.3288,0,-0.1742,-0.187,-0.1887,-0.1918,-0.202,-0.2038,-0.219,-0.2313,-0.2391,-0.2593,-0.2723,-0.3114,-0.3227,-0.3328,-0.3503,-0.3568,-0.3646,-0.3513,-0.3503,-0.3391,-0.3408,-0.3234,-0.3206,-0.3538,-0.3539,-0.3539,-0.33,0,-0.1782,-0.1857,-0.1883,-0.1936,-0.1985,-0.204,-0.2111,-0.2235,-0.233,-0.2409,-0.2648,-0.286,-0.3046,-0.3174,-0.3305,-0.3491,-0.3362,-0.3295,-0.319,-0.3321,-0.3196,-0.3188,-0.3227,-0.3223,-0.3219,-0.3216,0,0,-0.1757,-0.1805,-0.1848,-0.1887,-0.1925,-0.1977,-0.201,-0.2095,-0.224,-0.2327,-0.2368,-0.2655,-0.2819,-0.305,-0.322,-0.3219,-0.3097,-0.3211,-0.3276,-0.3284,-0.329,-0.3179,-0.3175,-0.321,-0.3209,-0.3207,-0.3206,0,-0.1732,-0.1786,-0.1821,-0.1865,-0.1928,-0.195,-0.1982,-0.2059,-0.2156,-0.2285,-0.2389,-0.2608,-0.2712,-0.2887,-0.296,-0.3152,-0.3009,-0.3167,-0.3326,-0.3248,-0.3261,-0.3271,-0.3165,-0.3164,-0.3198,-0.3198,-0.3198,0,-0.169,-0.1726,-0.1754,-0.1819,-0.185,-0.1885,-0.1919,-0.1998,-0.2072,-0.2128,-0.2298,-0.2412,-0.2502,-0.2686,-0.2767,-0.2722,-0.2891,-0.2902,-0.292,-0.2924,-0.2835,-0.2852,-0.2867,-0.2665,-0.2664,-0.2663,0,0,-0.1668,-0.172,-0.1747,-0.1807,-0.1821,-0.1872,-0.1918,-0.1978,-0.2066,-0.213,-0.2228,-0.2335,-0.2455,-0.254,-0.2616,-0.2743,-0.2642,-0.2843,-0.2868,-0.2889,-0.2904,-0.2823,-0.284,-0.2658,-0.2658,-0.2658,0,0,-0.1658,-0.1696,-0.1711,-0.1774,-0.1825,-0.1868,-0.1931,-0.1975,-0.2103,-0.2139,-0.2209,-0.2242,-0.2427,-0.2425,-0.236,-0.2632,-0.2521,-0.2534,-0.2667,-0.2698,-0.2722,-0.273,-0.2352,0,0,0,0,0,-0.1622,-0.1671,-0.1682,-0.1695,-0.1772,-0.183,-0.1847,-0.1951,-0.1987,-0.2055,-0.2165,-0.2167,-0.2435,-0.2377,-0.239,-0.2528,-0.2598,-0.2609,-0.2619,-0.2817,-0.2849,-0.2877,0,0,0,0,0,0,-0.1626,-0.1638,-0.1681,-0.1711,-0.1731,-0.1827,-0.1865,-0.1893,-0.1987,-0.201,-0.2142,-0.2166,-0.2211,-0.237,-0.2382,-0.2515,-0.2348,-0.2602,-0.2611,-0.2619,-0.2828,-0.2855,-0.2878,0,0,0,0,0,-0.163,-0.164,-0.1745,-0.1713,-0.173,-0.1855,-0.187,-0.1894,-0.1993,-0.2063,-0.2094,-0.2084,-0.2205,-0.2226,-0.2377,-0.2512,-0.234,-0.2345,-0.2608,-0.2615,-0.2622,-0.2841,0,0,0,0,0,0,-0.1634,-0.1661,-0.1751,-0.1759,-0.1757,-0.1859,-0.188,-0.1895,-0.2046,-0.2074,-0.2,-0.2014,-0.22,-0.2218,-0.2233,-0.2514,-0.2334,-0.2338,-0.2341,-0.2613,-0.2619,-0.2624,0,0,0,0,0,0,-0.1657,-0.1667,-0.1755,-0.1804,-0.1819,-0.1861,-0.188,-0.1907,-0.2048,-0.1977,-0.1992,-0.2005,-0.2196,-0.2211,-0.2223,-0.226,-0.2329,-0.2333,-0.2336,-0.2338,-0.2618,-0.2622,0,0,0,0,0,0,-0.1663,-0.1672,-0.1802,-0.1814,-0.1828,-0.1934,-0.189,-0.198,-0.2049,-0.1969,-0.2063,-0.2069,-0.2187,-0.2202,-0.2216,-0.2246,-0.2256,-0.2329,-0.2332,-0.2334,-0.2335,0,0,0,0,0,0,0,-0.1668,-0.1582,-0.1698,-0.1822,-0.1835,-0.1839,-0.1842,-0.1844,-0.2051,-0.2056,-0.2062,-0.2067,-0.2305,-0.231,-0.2314,-0.2234,0,0,-0.2329,-0.2331,0,0,0,0,0,0,0,0,-0.1581,-0.1582,-0.1699,-0.17,-0.1702,-0.184,-0.1842,-0.1844,-0.2052,-0.2056,-0.2061,-0.2065,-0.2306,-0.231,-0.2314,0,0,0,0,0,0,0,0,0,0,0,0,0,0,0,-0.1699,-0.17,0,-0.184,-0.1842,-0.1843,-0.2052,-0.2056,-0.206,-0.2063,-0.2307,-0.231,-0.2313,0,0,0,0,0,0,0,0,0,0,0,0,0,0,0,0,0,0,0,0,0,0,0,0,0,0,0,0,0,0,0,0,0,0,0,0,0,0,0,0,0,0,0,0,0,0,0,0,0,0,0,0,0,0,0,0,0,0,0,0,0,0,0,0,0,0,0,0,0]}],[{"header":{"parameterUnit":"kt","parameterCategory":2,"dx":1,"dy":1,"la1":30.253999710083008,"la2":30.299108505249023,"lo1":-89.0895004272461,"lo2":-89.04439544677734,"nx":28,"ny":28,"refTime":"2022-09-20T09:00:00:Z","depth":"4","parameterNumber":3,"parameterNumberName":"V-component_of_CURRENTS"},"data":[-0.1023,-0.1099,-0.1126,-0.1231,-0.1298,-0.1418,-0.145,-0.1424,-0.1262,-0.115,-0.0797,-0.0638,-0.0028,-0.0284,0.0559,0.0662,0.0655,0.1342,0.1349,0.128,0.126,0.1243,0.0907,0,0,0,0,0,-0.1006,-0.1056,-0.1131,-0.1243,-0.1331,-0.1402,-0.1455,-0.1514,-0.1482,-0.1182,-0.1156,-0.0679,-0.0075,0.0164,0.0567,0.0593,0.0976,0.1062,0.099,0.1268,0.1246,0.0926,0,0,0,0,0,0,-0.098,-0.1041,-0.1116,-0.1212,-0.1325,-0.1398,-0.1496,-0.1439,-0.1447,-0.1253,-0.1103,-0.0669,-0.043,0.0128,0.0564,0.0938,0.0961,0.0985,0.098,0.0963,0.0675,0.0609,0.1024,0,0,0,0,0,-0.0951,-0.0991,-0.109,-0.1189,-0.1302,-0.1459,-0.158,-0.1567,-0.1607,-0.1583,-0.1224,-0.0898,-0.0381,0.0072,0.0536,0.0919,0.0916,0.1131,0.1119,0.084,0.0817,0.0842,0.0798,0.1165,0.1163,0.1161,0.116,0,-0.09,-0.0958,-0.1122,-0.1186,-0.1284,-0.1477,-0.1578,-0.17,-0.1692,-0.1561,-0.1461,-0.1078,-0.0879,-0.0036,0.0244,0.0843,0.0856,0.1076,0.0777,0.0778,0.0818,0.0777,0.0739,0.1143,0.1144,0.1145,0.1147,0,-0.0874,-0.0947,-0.1077,-0.1253,-0.1318,-0.1437,-0.1632,-0.1685,-0.1709,-0.1653,-0.1625,-0.1402,-0.0924,-0.0578,-0.0052,0.0127,0.0556,0.0716,0.0456,0.0506,0.0726,0.0694,0.1114,0.1121,0.1126,0.113,0.1134,0,-0.0862,-0.0961,-0.1094,-0.1162,-0.1314,-0.1426,-0.1573,-0.1627,-0.1674,-0.1641,-0.1584,-0.1448,-0.1163,-0.0814,-0.0504,0.0022,0.0015,0.0263,0.0346,0.0001,-0.0024,0.0067,0.0046,0.0205,0.0201,0.0197,0.0193,0,-0.0822,-0.0972,-0.1073,-0.1128,-0.1292,-0.1389,-0.1489,-0.1555,-0.1588,-0.1587,-0.1528,-0.1383,-0.1231,-0.0957,-0.0533,-0.0603,-0.0017,-0.0091,0.0202,0.0215,0.0035,0.0021,0.0188,0.0187,0.0186,0.0185,0.0183,0,-0.0826,-0.0898,-0.102,-0.1179,-0.1214,-0.1308,-0.1436,-0.1507,-0.1535,-0.1515,-0.146,-0.1372,-0.1202,-0.1153,-0.072,-0.0842,-0.06,-0.04,-0.0377,-0.0276,-0.0247,-0.0175,-0.006,-0.0065,-0.007,-0.0074,-0.0078,0,-0.0784,-0.0889,-0.0935,-0.107,-0.1134,-0.1199,-0.1289,-0.1344,-0.1337,-0.136,-0.1281,-0.1252,-0.1166,-0.1124,-0.1011,-0.0774,-0.0623,-0.0833,-0.0381,-0.0364,-0.0326,-0.0207,-0.0695,-0.0142,-0.0134,-0.0128,-0.0124,0,-0.0739,-0.0841,-0.0858,-0.093,-0.101,-0.1046,-0.1138,-0.1196,-0.1242,-0.1213,-0.1242,-0.1174,-0.1104,-0.1085,-0.1024,-0.0905,-0.0698,-0.0811,-0.0803,-0.0594,-0.0344,-0.0285,-0.024,-0.0712,-0.0709,-0.0706,-0.0168,0,-0.0753,-0.0814,-0.0828,-0.0908,-0.0947,-0.0987,-0.1026,-0.107,-0.1082,-0.1077,-0.1071,-0.1004,-0.0986,-0.0969,-0.0924,-0.0872,-0.0763,-0.0799,-0.0773,-0.0759,-0.0515,-0.0481,-0.0866,-0.0864,-0.0863,-0.0862,0,0,-0.0713,-0.0759,-0.0761,-0.0809,-0.0849,-0.0853,-0.091,-0.0933,-0.0949,-0.096,-0.0926,-0.0901,-0.0885,-0.0892,-0.0872,-0.0871,-0.0736,-0.0873,-0.0777,-0.0769,-0.076,-0.053,-0.0499,-0.086,-0.0859,-0.0859,-0.0859,0,-0.07,-0.0722,-0.0754,-0.0784,-0.0815,-0.083,-0.0846,-0.0861,-0.0875,-0.0905,-0.0874,-0.0849,-0.0862,-0.0838,-0.0832,-0.0854,-0.0753,-0.0854,-0.0875,-0.0771,-0.0765,-0.0758,-0.0531,-0.0504,-0.0856,-0.0856,-0.0856,0,-0.0688,-0.0704,-0.0722,-0.0748,-0.076,-0.0804,-0.0773,-0.0795,-0.0843,-0.0791,-0.0841,-0.0806,-0.0783,-0.0792,-0.0799,-0.0787,-0.0726,-0.0821,-0.0825,-0.0812,-0.0701,-0.0694,-0.0688,-0.0769,-0.0769,-0.0769,0,0,-0.0684,-0.0711,-0.0725,-0.0745,-0.0753,-0.077,-0.0782,-0.0788,-0.0784,-0.0788,-0.0789,-0.078,-0.0777,-0.0781,-0.0773,-0.0796,-0.0689,-0.0815,-0.0819,-0.0823,-0.0812,-0.0704,-0.0697,-0.077,-0.077,-0.077,0,0,-0.0667,-0.0691,-0.0711,-0.073,-0.0746,-0.0742,-0.0755,-0.0769,-0.0774,-0.0777,-0.0765,-0.0763,-0.0779,-0.0763,-0.077,-0.0786,-0.076,-0.076,-0.0821,-0.0826,-0.0829,-0.0819,-0.0765,0,0,0,0,0,-0.0678,-0.0691,-0.071,-0.0715,-0.0739,-0.0745,-0.0748,-0.0748,-0.0758,-0.0769,-0.0755,-0.0764,-0.0743,-0.0749,-0.0755,-0.0795,-0.0779,-0.0777,-0.0776,-0.0859,-0.0864,-0.0868,0,0,0,0,0,0,-0.0679,-0.0685,-0.0709,-0.0706,-0.0712,-0.0744,-0.0727,-0.0727,-0.0755,-0.0754,-0.0764,-0.0763,-0.0746,-0.0748,-0.0753,-0.0791,-0.0763,-0.0778,-0.0777,-0.0776,-0.0861,-0.0865,-0.0868,0,0,0,0,0,-0.0681,-0.0685,-0.0722,-0.0706,-0.0711,-0.0717,-0.0726,-0.0726,-0.0753,-0.074,-0.074,-0.0753,-0.0746,-0.075,-0.0751,-0.0789,-0.076,-0.0762,-0.0777,-0.0776,-0.0775,-0.0863,0,0,0,0,0,0,-0.0682,-0.0687,-0.0723,-0.0725,-0.0695,-0.0715,-0.0717,-0.0725,-0.0737,-0.0738,-0.0725,-0.0723,-0.0747,-0.075,-0.0753,-0.0788,-0.0757,-0.0759,-0.076,-0.0777,-0.0776,-0.0775,0,0,0,0,0,0,-0.0685,-0.0689,-0.0724,-0.071,-0.071,-0.0713,-0.0715,-0.0737,-0.0737,-0.0722,-0.0721,-0.0724,-0.0741,-0.075,-0.0752,-0.0786,-0.0755,-0.0757,-0.0758,-0.0759,-0.0776,-0.0775,0,0,0,0,0,0,-0.0687,-0.069,-0.071,-0.071,-0.071,-0.073,-0.0732,-0.0756,-0.0729,-0.0721,-0.0726,-0.0724,-0.0741,-0.0743,-0.0752,-0.0785,-0.0786,-0.0755,-0.0757,-0.0757,-0.0758,0,0,0,0,0,0,0,-0.0688,-0.0665,-0.0713,-0.071,-0.071,-0.0741,-0.0742,-0.0742,-0.0728,-0.0727,-0.0726,-0.0725,-0.0746,-0.0748,-0.0749,-0.0784,0,0,-0.0755,-0.0756,0,0,0,0,0,0,0,0,-0.0664,-0.0665,-0.0713,-0.0713,-0.0714,-0.0742,-0.0742,-0.0742,-0.0728,-0.0727,-0.0726,-0.0725,-0.0746,-0.0748,-0.0749,0,0,0,0,0,0,0,0,0,0,0,0,0,0,0,-0.0713,-0.0713,0,-0.0742,-0.0742,-0.0742,-0.0728,-0.0727,-0.0726,-0.0726,-0.0747,-0.0748,-0.0749,0,0,0,0,0,0,0,0,0,0,0,0,0,0,0,0,0,0,0,0,0,0,0,0,0,0,0,0,0,0,0,0,0,0,0,0,0,0,0,0,0,0,0,0,0,0,0,0,0,0,0,0,0,0,0,0,0,0,0,0,0,0,0,0,0,0,0,0,0]}]]]